Flag Weather past 2 weeks in Walsrode, Lower Saxony, Germany

Now
36 °F

Partly cloudy.


Feels Like: 28 °F
Forecast: 31 / 38 °F
Wind: 10 mph from Southeast

Location: Fassberg

Current Time: Nov 27, 2014 at 7:47:07 PM

Latest Report: Nov 27, 2014 at 6:20 PM


Visibility: N/A

Pressure: 29.92 "Hg

Humidity: 81%

Dew point: 30 °F

Location of WalsrodeLocation

Historic Weather in Walsrode — Graph

°F

Walsrode temperature yesterday

Maximum temperature yesterday: 41 °F (at 2:20 PM)
Minimum temperature yesterday: 36 °F (at 1:20 AM)
Average temperature yesterday: 38 °F

Past Weeks' High & Low Weather Summary

 TemperatureHumidityPressure
High54 °F (Nov 14, 3:20 PM)100% (Nov 12, 6:20 PM)30.39 "Hg (Nov 12, 6:20 PM)
Low30 °F (Nov 25, 5:20 AM)62% (Nov 21, 12:20 PM)29.53 "Hg (Nov 16, 12:20 PM)
Average43 °F90%30.02 "Hg
* Reported Nov 12 6:20 PM — Nov 27 6:20 PM, Walsrode, Weather by CustomWeather, © 2014

Note: Actual official high and low records may vary slightly from our data, if they occured in-between our weather recording intervals... More about our weather records

Advertising

Walsrode weather history for previous 24 hours

 ConditionsComfort  
Time TempWeatherWind HumidityBarometerVisibility
6:20 PM
Nov 27
36 °FPartly cloudy.10 mph81%29.92 "HgN/A
6:04 PM36 °FPartly cloudy.10 mph81%29.92 "Hg6 mi
5:20 PM36 °FPartly cloudy.9 mph81%29.92 "Hg6 mi
4:20 PM36 °FPartly cloudy.10 mph81%29.92 "Hg6 mi
3:20 PM37 °FPartly sunny.10 mph81%29.89 "HgN/A
2:20 PM37 °FBroken clouds.12 mph81%29.92 "HgN/A
1:20 PM37 °FPartly sunny.13 mph75%29.92 "HgN/A
12:20 PM37 °FScattered clouds.10 mph75%29.92 "HgN/A
11:20 AM36 °FScattered clouds.9 mph81%29.95 "Hg5 mi
10:20 AM34 °FPassing clouds.12 mph87%29.95 "Hg5 mi
9:20 AM32 °FScattered clouds.9 mph93%29.95 "Hg4 mi
8:20 AM30 °FIce fog.9 mph93%29.95 "Hg3 mi
7:20 AM32 °FPassing clouds.9 mph87%29.95 "Hg4 mi
6:20 AM32 °FPassing clouds.9 mph93%29.95 "Hg4 mi
5:20 AM32 °FPassing clouds.9 mph93%29.98 "Hg4 mi
4:20 AM34 °FPassing clouds.8 mph87%29.98 "HgN/A
3:20 AM34 °FPassing clouds.10 mph87%29.98 "HgN/A
2:20 AM34 °FPassing clouds.8 mph87%30.01 "HgN/A
1:20 AM36 °FPassing clouds.9 mph87%30.01 "HgN/A
12:20 AM36 °FPassing clouds.10 mph87%30.04 "HgN/A
11:20 PM
Nov 26
37 °FPassing clouds.14 mph81%30.07 "HgN/A
10:20 PM39 °FPassing clouds.13 mph87%30.07 "HgN/A
9:20 PM39 °FPartly cloudy.10 mph87%30.07 "Hg5 mi
8:20 PM37 °FPassing clouds.10 mph87%30.07 "Hg5 mi
7:50 PM37 °FPartly cloudy.10 mph87%30.07 "Hg5 mi
7:20 PM37 °FPartly cloudy.12 mph87%30.07 "Hg5 mi
Weather by CustomWeather, © 2014

See weather overviewHow to use our weather pages